Torna al catalogo

ARIANE 5 DEB

SYLDA

AttivoHEO
NORAD 39511·DEBRIS·🇫🇷 France

Lanciato Feb 6, 2014 da Guiana Space Centre

Loading…

Prossimi Passaggi (prossime 24 ore)

TLE

AggiornatoSource: Space-Track

Epoca: Sep 14, 2026, 12:35 UTC

1 39511U 14006D   26257.52446943  .00051322  00000-0  42464-2 0  9994
2 39511   5.7758 310.4978 4972650  59.1778 340.4698  5.71596331171277

Traccia ARIANE 5 DEB in tempo reale con AllMySat

Download on the App Store